Location: Mequon Rotary Park
(43.2522°N, 87.9594°W)
Time: 03:51:52
(UTC-05:00)

Daily predictions for brighter satellites

Satellite Brightness Start Highest point End
(mag) Time Altitude Azimuth Time Altitude Azimuth Time Altitude Azimuth
Cosmos 2278 Rocket 4.2 00:03:25 13° E 00:03:38 13° E 00:06:05 10° ENE
ERBS 4.3 00:07:16 10° WNW 00:08:46 20° W 00:08:46 20° W
Terra 4.0 00:10:53 12° WSW 00:12:41 15° W 00:15:20 10° NW
Cosmos 2034 Rocket 4.0 00:08:36 10° N 00:14:59 84° W 00:17:05 46° S
Cosmos 1933 4.0 00:12:08 10° N 00:16:05 45° ENE 00:16:12 44° E
COSMOS 2406 3.7 00:11:22 10° NNW 00:16:56 54° ENE 00:19:02 36° ESE
Cosmos 1626 4.5 00:20:51 14° W 00:22:04 16° WNW 00:24:31 10° NNW
ALOS 2 2.4 00:23:03 76° S 00:23:24 86° W 00:27:48 10° NNW
CZ-4C R/B 2.2 00:22:54 52° SE 00:23:26 54° ESE 00:29:10 10° NE
SWAS 4.5 00:23:25 65° WSW 00:23:53 73° WNW 00:28:13 10° NNE
Cosmos 2263 Rocket 3.3 00:20:31 16° WSW 00:24:28 38° WNW 00:29:42 10° NNE
Meteor 2-10 Rocket 3.8 00:20:26 10° N 00:25:43 62° ENE 00:27:04 47° SE
Cosmos 292 Rocket 4.0 00:25:11 10° NNW 00:29:54 58° ENE 00:30:47 49° ESE
Sich 1 3.5 00:30:17 45° WSW 00:30:50 48° WNW 00:34:59 10° N
CZ-4B R/B 3.4 00:31:59 22° ENE 00:32:04 22° ENE 00:34:51 10° NNE
Cosmos 1869 4.3 00:28:31 10° NNW 00:32:05 36° W 00:32:05 36° W
Cosmos 1315 Rocket 3.8 00:34:45 36° ENE 00:34:45 36° ENE 00:37:58 10° NNE
Meteor 2-3 Rocket 4.4 00:36:55 37° SE 00:38:13 42° E 00:43:38 10° NNE
Cosmos 1400 Rocket 2.8 00:41:35 86° NW 00:41:35 86° NW 00:45:42 10° N
Cosmos 2346 Rocket 4.4 00:48:40 50° S 00:50:25 85° E 00:56:32 10° N
Cosmos 773 Rocket 4.2 00:46:28 10° NNW 00:51:41 64° ENE 00:53:04 46° SE
Cosmos 1634 Rocket 3.9 00:48:01 10° N 00:54:14 79° E 00:56:07 47° SSE
Cosmos 1844 Rocket 2.6 00:57:52 53° SSW 00:59:14 86° WNW 01:04:51 10° NNE
Cosmos 1777 Rocket 4.0 00:58:49 58° SSE 00:59:32 65° ESE 01:04:44 10° NNE
Cosmos 1862 Rocket 3.6 00:55:36 10° NNW 00:59:54 61° W 01:00:01 61° WSW
Spot 2 4.3 00:57:10 10° N 01:01:59 68° WNW 01:02:41 58° WSW
Cosmos 1933 Rocket 3.7 01:01:51 59° W 01:02:09 61° W 01:06:29 10° N
Cosmos 2142 Rocket 4.4 01:01:37 10° N 01:07:56 89° E 01:09:49 48° S
Cosmos 1346 Rocket 3.4 01:05:43 10° N 01:09:30 47° ENE 01:09:34 46° E
In-Cosmos 22 Rocket 4.3 01:08:49 49° SW 01:10:09 66° WNW 01:15:43 10° N
CZ-2C R/B 4.3 01:09:06 29° WSW 01:10:19 32° W 01:15:24 10° NNW
CZ-4C R/B 3.9 01:11:16 43° NW 01:11:16 43° NW 01:13:40 10° NNW
Aureole 3 4.4 01:11:57 46° SSE 01:13:33 64° E 01:18:38 10° NNE
Cosmos 1892 2.8 01:16:20 76° NNW 01:16:20 76° NNW 01:20:02 10° N
Cosmos 2221 Rocket 3.9 01:14:08 10° N 01:18:32 56° E 01:19:08 51° ESE
SAR-Lupe-2 4.0 01:22:19 57° NW 01:22:19 57° NW 01:25:20 10° NNW
SL-27 R/B 3.1 01:22:57 10° NNW 01:25:39 51° NNE 01:25:39 51° NNE
SeaSat 1 4.1 01:26:04 10° ESE 01:30:18 31° NE 01:34:36 10° N
Cosmos 1703 Rocket 3.5 01:26:37 10° NNW 01:31:07 76° W 01:31:27 71° SW
CZ-2C R/B 4.4 01:30:43 10° NNW 01:34:46 23° WNW 01:37:21 16° W
Cosmos 1606 3.2 01:31:58 10° N 01:35:46 50° ENE 01:36:00 49° E
H-2A R/B 2.5 01:38:34 10° NNE 01:43:08 84° ESE 01:43:43 67° S
Genesis I 3.3 01:46:04 67° E 01:46:04 67° E 01:49:45 10° NE
Cosmos 2278 Rocket 2.1 01:45:14 49° SSW 01:46:52 88° WNW 01:52:33 10° NNE
Cosmos 1844 4.4 01:49:46 29° WSW 01:52:07 45° WNW 01:57:30 10° NNE
CZ-3B DEB 4.5 01:40:00 10° NW 01:53:00 68° NNE 02:04:58 10° ESE
Nadezhda 4 Rocket 4.2 01:50:38 37° SSE 01:53:10 67° E 01:59:27 10° NNE
Cosmos 1833 Rocket 3.3 01:49:12 10° NNW 01:54:44 52° ENE 01:58:54 17° SE
Cosmos 1869 Rocket 3.7 01:54:19 54° WSW 01:54:47 58° W 01:59:06 10° N
Okean 1-7 3.1 01:53:38 10° NNW 01:57:52 56° W 01:58:10 55° WSW
Cosmos 1689 Rocket 4.3 01:59:56 19° WNW 01:59:56 19° WNW 02:01:21 10° NW
Cosmos 923 Rocket 4.2 01:57:04 10° NNW 02:02:06 51° WSW 02:02:55 46° SW
COSMOS 2487 4.0 01:58:56 10° N 02:02:11 32° ENE 02:03:26 25° ESE
Cosmos 1461 2.6 02:03:34 69° WSW 02:03:53 75° NW 02:07:53 10° NNE
CZ-4B R/B 3.4 02:05:33 20° WNW 02:05:33 20° WNW 02:07:26 10° NW
Cosmos 2297 3.9 02:04:57 41° S 02:06:47 61° ESE 02:12:23 10° NNE
Cosmos 2279 Rocket 4.4 02:00:55 10° NNW 02:06:53 49° W 02:08:54 36° SW
SL-16 R/B 4.1 02:03:21 10° SE 02:08:46 32° ENE 02:14:12 10° N
Meteor 1-10 Rocket 4.3 02:05:52 10° NNW 02:11:35 65° W 02:13:33 41° SSW
CZ-4C R/B 3.8 02:08:03 13° W 02:12:18 31° NW 02:17:44 10° NNE
Exosat Rocket 4.2 02:11:54 10° NNW 02:17:21 71° ENE 02:24:04 12° SSE
Cosmos 2082 Rocket 2.1 02:14:01 10° NNW 02:19:40 86° ENE 02:22:59 26° SSE
Cosmos 1733 Rocket 3.1 02:19:01 49° SSE 02:20:06 73° E 02:24:29 10° NNE
ADEOS Rocket 4.2 02:13:04 10° NNE 02:20:22 45° E 02:25:04 20° SSE
Cosmos 1862 3.2 02:20:10 61° S 02:20:50 89° ENE 02:24:55 10° N
BREEZE-M DEB (TANK) 4.5 02:18:10 32° S 02:21:16 53° SE 02:44:58 10° ENE
PSLV R/B 3.9 02:17:00 10° N 02:21:17 55° WNW 02:22:21 44° WSW
Cosmos 1825 2.5 02:21:09 49° W 02:21:24 50° W 02:25:08 10° N
Cosmos 1782 3.9 02:26:05 10° NNW 02:29:39 30° W 02:29:43 30° W
Abrixas 4.4 02:29:28 18° NW 02:30:49 26° N 02:33:12 10° ENE
ATLAS 3B R/B 3.1 02:28:25 30° S 02:32:10 60° ESE 02:39:15 10° NE
Cosmos 44 3.1 02:32:00 46° SSW 02:33:20 80° ESE 02:37:51 10° NE
Cosmos 1408 3.6 02:34:05 31° W 02:34:16 31° WNW 02:37:32 10° NNW
Meteor 1-27 Rocket 3.9 02:34:44 10° NNW 02:40:36 62° W 02:43:19 32° SSW
Sich 1 Rocket 4.3 02:38:43 27° SSE 02:40:53 50° E 02:45:20 10° NNE
Cosmos 44 Rocket 3.3 02:41:11 37° SW 02:43:02 71° NW 02:47:50 10° NNE
AQUA 4.0 02:40:33 10° NNE 02:45:18 68° ESE 02:47:29 31° S
Okean 3 3.8 02:41:10 10° N 02:45:24 62° E 02:47:40 26° SSE
Cosmos 1627 Rocket 4.5 02:42:21 28° S 02:45:48 79° E 02:51:58 10° N
PSLV R/B 4.2 02:45:26 43° SW 02:46:12 49° W 02:50:16 10° NNW
Helios 1A Rocket 3.3 02:42:17 10° N 02:46:17 50° WNW 02:47:25 38° WSW
Cosmos 1674 Rocket 3.5 02:44:48 10° NNW 02:49:14 69° W 02:50:50 38° SSW
Timation 2 Rocket 3.9 02:43:46 10° NNW 02:49:52 88° WSW 02:56:08 10° SSE
Cosmos 1937 Rocket 3.4 02:49:53 34° SSW 02:52:11 84° WNW 02:57:23 10° NNE
Meteor 2-20 Rocket 4.4 02:51:48 29° SSW 02:55:12 79° W 03:01:25 10° N
Resurs 1-4 Rocket 2.8 02:51:18 10° NNE 02:56:29 49° E 03:00:04 19° SSE
COBE Rocket 4.0 02:53:59 10° NNE 02:58:47 74° E 03:01:30 27° S
Geosat 4.1 02:54:28 10° NNE 02:59:30 67° ESE 03:02:09 28° S
BREEZE M DEB (TANK) 3.0 02:59:11 25° WNW 03:00:17 39° NNW 03:02:24 10° NE
Cosmos 1908 Rocket 3.5 02:58:20 32° S 03:00:22 86° E 03:04:51 10° N
BREEZE-M DEB (TANK) 2.9 03:04:03 27° SE 03:04:24 28° SE 03:08:10 10° ENE
Cosmos 1092 Rocket 4.4 03:01:33 26° SW 03:04:52 50° WNW 03:10:57 10° N
BREEZE-M R/B 4.2 02:57:33 10° WNW 03:05:20 57° NNE 03:09:06 10° E
Cosmos 1898 Rocket 4.0 03:03:10 26° WSW 03:05:44 47° WNW 03:10:49 10° N
SeaSat 1 2.9 03:05:50 29° SSW 03:07:41 40° WSW 03:12:20 10° NW
Cosmos 990 Rocket 4.0 03:05:25 29° SSW 03:08:02 72° WNW 03:13:13 10° NNE
Okean 2 Rocket 4.1 03:05:26 16° SSE 03:08:39 41° E 03:12:49 10° NNE
IRS-1C 4.1 03:05:16 10° NNE 03:10:38 83° WNW 03:13:51 25° SSW
Cosmos 1378 Rocket 3.4 03:06:35 10° NNW 03:10:55 73° W 03:13:18 26° S
CZ-2D R/B 2.4 03:06:38 10° NNE 03:12:00 67° ESE 03:15:55 19° S
Cosmos 1607 4.5 03:08:10 20° WSW 03:12:15 51° NW 03:18:23 10° NNE
Cosmos 1125 Rocket 4.4 03:11:41 16° S 03:15:36 44° ESE 03:20:37 10° NNE
Cosmos 1553 Rocket 4.1 03:10:55 10° N 03:17:20 83° E 03:23:45 10° S
ARIANE 5 R/B 2.7 03:12:21 10° NNE 03:17:20 67° ESE 03:20:57 19° S
Cosmos 2026 Rocket 4.0 03:13:39 24° SSW 03:17:27 66° W 03:23:29 10° N
Cosmos 1340 3.9 03:14:26 10° NW 03:17:31 24° W 03:18:02 23° WSW
Spot 4 Rocket 4.0 03:14:37 10° NNE 03:19:47 84° ESE 03:23:21 21° SSW
SL-08 R/B 3.8 03:18:19 26° SSW 03:20:34 42° W 03:25:09 10° NNW
Cosmos 1782 Rocket 3.6 03:20:21 23° S 03:23:10 88° E 03:27:40 10° N
USA 238 DEB 3.7 03:18:44 22° SW 03:23:32 89° ESE 03:30:35 10° NE
USA 238 3.7 03:18:50 22° SSW 03:23:38 88° ESE 03:30:41 10° NE
UNKNOWN OBJECT B 3.9 03:23:35 10° NNE 03:27:05 37° E 03:30:08 13° SSE
IRS-1D 3.5 03:22:18 10° NNE 03:27:27 89° WNW 03:31:04 19° SSW
Meteor 1-18 Rocket 4.2 03:24:49 10° N 03:30:24 88° E 03:35:58 10° S
Cosmos 2278 Rocket 4.3 03:28:17 10° W 03:31:48 16° NW 03:35:19 10° N
CZ-3A R/B 4.5 03:31:03 14° S 03:34:28 18° SSE 03:46:30 10° SE
Meteor 2-11 Rocket 4.4 03:28:58 10° NNW 03:35:07 73° W 03:41:13 10° S
COSMOS 2487 4.3 03:35:10 10° WNW 03:37:16 15° W 03:37:16 15° W
Meteor 1-20 Rocket 4.3 03:32:30 15° S 03:37:24 85° E 03:43:18 10° N
Cosmos 1833 Rocket 3.9 03:33:54 10° NW 03:38:16 23° WSW 03:40:32 18° SW
Okean O Rocket 4.3 03:36:19 10° ENE 03:38:25 13° E 03:40:31 10° ESE
Cosmos 1943 Rocket 3.6 03:33:54 10° SSE 03:38:49 32° ESE 03:43:45 10° NE
GP-B 4.4 03:36:08 10° NNW 03:39:47 25° WNW 03:41:55 18° WSW
Cosmos 1346 2.6 03:37:31 10° NNW 03:40:15 82° WSW 03:41:59 20° S
Cosmos 2369 Rocket 2.6 03:36:24 14° S 03:41:05 60° ESE 03:46:39 10° NNE
Cosmos 1269 Rocket 4.3 03:38:28 10° NNW 03:43:48 74° ENE 03:49:05 10° SSE
Cosmos 1437 3.0 03:40:47 10° NNW 03:43:56 47° W 03:45:48 21° SSW
Cosmos 405 Rocket 2.9 03:41:20 10° N 03:45:21 74° E 03:49:15 10° SSE
Cosmos 1655 Rocket 4.3 03:40:47 17° SSW 03:45:26 52° WNW 03:51:33 10° N
UNK 4.2 03:42:46 17° SSW 03:46:08 43° W 03:50:36 10° NNW
CZ-3B DEB 4.0 03:34:34 10° NW 03:47:29 62° SW 03:58:04 10° SSE
COSMOS 2455 3.9 03:44:42 10° S 03:50:14 40° ESE 03:55:48 10° NE
Cosmos 1812 3.2 03:47:15 10° NNW 03:50:54 41° W 03:53:35 16° SSW
ADEOS II 3.9 03:47:35 10° NE 03:52:02 27° E 03:56:27 10° SSE
SL-16 R/B 2.9 03:46:39 12° S 03:52:11 45° W 03:58:09 10° NNW
Cosmos 1975 Rocket 3.4 03:48:07 10° NNW 03:52:16 46° W 03:55:49 14° SSW
Cosmos 372 Rocket 4.1 03:49:53 13° SSW 03:54:32 79° ESE 03:59:45 10° NNE
Cosmos 2151 Rocket 3.9 03:52:09 10° S 03:56:38 68° E 04:01:09 10° NNE
USA 267 3.4 03:50:42 10° NE 03:57:15 70° SE 04:03:11 13° SW
USA 161 2.1 04:00:20 10° SSE 04:02:37 46° ENE 04:05:06 10° N
Cosmos 2082 Rocket 3.9 04:00:22 10° WNW 04:02:55 13° W 04:04:46 11° WSW
NOSS 3-2 (C) 3.7 03:57:46 12° SSW 04:03:16 66° ESE 04:09:48 10° NE
NOSS 3-2 (A) 3.5 03:58:42 14° SSW 04:04:01 85° SE 04:10:41 10° NE
Cosmos 1536 4.4 04:00:30 10° SSE 04:04:05 33° E 04:07:41 10° NNE
ADEOS Rocket 4.2 03:58:40 10° N 04:05:40 40° WNW 04:12:01 11° SW
Abrixas 3.8 04:03:27 10° NW 04:06:02 37° NNE 04:08:38 10° E
Cosmos 158 Rocket 3.9 04:01:54 10° NNW 04:07:00 66° WSW 04:11:55 10° S
SL-24 R/B 4.2 04:03:43 10° NNE 04:07:52 85° ESE 04:12:36 10° SSW
Cosmos 1602 3.8 04:08:42 10° S 04:12:38 88° WNW 04:16:36 10° N
Cosmos 2344 3.7 04:05:50 12° SW 04:13:08 90° N 04:21:48 10° NE
Cosmos 1536 Rocket 3.6 04:10:28 10° N 04:14:59 87° WSW 04:19:26 10° S
Cosmos 2315 Rocket 4.1 04:10:13 10° N 04:16:34 87° E 04:22:49 10° S
Cosmos 2266 Rocket 4.2 04:14:30 10° SSW 04:20:50 62° W 04:27:11 10° N
BREEZE-M DEB (TANK) 3.3 04:16:44 10° WNW 04:21:09 33° SW 04:23:44 10° SSE
CENTAUR R/B 4.0 04:16:45 10° S 04:21:55 31° ESE 04:27:38 10° NE
ATLAS 3B R/B 3.8 04:16:28 10° WSW 04:23:15 37° NW 04:29:49 10° NNE
MOZ.5/SAFIR/RUBIN 5/SL-8 4.3 04:18:58 10° S 04:23:28 42° W 04:27:59 10° NNW
ADEOS 4.5 04:19:22 10° N 04:24:02 34° WNW 04:28:42 10° SW
Cosmos 1048 Rocket 4.4 04:22:04 10° NNW 04:27:09 44° WSW 04:32:13 10° S
GENESIS II 4.3 04:27:00 10° SW 04:31:01 82° WNW 04:35:04 10° NNE
Gbstr 26 Del rocket 3.2 04:27:52 10° SW 04:31:29 50° SE 04:35:13 10° ENE
USA 234 4.1 04:25:39 10° ESE 04:32:01 56° NNE 04:38:22 10° NW
Cosmos 1633 3.6 04:29:15 10° SW 04:32:32 31° WNW 04:35:49 10° NNW
Okean 1 4.5 04:29:29 10° NNW 04:32:54 26° W 04:36:17 10° SSW
Resurs 1-4 Rocket 3.5 04:31:49 10° NNW 04:35:59 24° WNW 04:40:07 10° WSW
CZ-4B R/B 4.2 04:34:48 10° NNE 04:40:12 50° E 04:45:39 10° S
MOS 1 Rocket 4.4 04:36:33 10° N 04:41:27 36° WNW 04:46:10 10° SW
